Fort Morgan, CO

2:19 AM MDT on April 21, 2018 (GMT -0600)
Fort Morgan

Weather History for KFMM - September, 2014

Change the Weather History Date:

Thursday, September 4, 2014

  Actual Average (KAKO) Record (KAKO)
Temperature  
Mean Temperature 65 °F -  
Max Temperature 74 °F 81 °F 97 °F (1959)
Min Temperature 55 °F 53 °F 40 °F (1956)
Growing Degree Days 15 (Base 50)    
Moisture  
Dew Point 41 °F    
Average Humidity 41    
Maximum Humidity 77    
Minimum Humidity 23    
Precipitation  
Precipitation 0.00 in - - ()
Sea Level Pressure  
Sea Level Pressure 30.04 in    
Wind  
Wind Speed 12 mph (NNE)    
Max Wind Speed 26 mph    
Max Gust Speed 34 mph    
Visibility 10 miles    
Events      
Averages and records for this station are not official NWS values.
T = Trace of Precipitation, MM = Missing Value Source: NWS Daily Summary

Daily Weather History Graph

Daily Weather History Graph

Search for Another Location

Airport or City:

Astronomy

Sep. 04, 2014 Rise Set
Actual Time 6:25 AM MDT 7:22 PM MDT
Civil Twilight 5:57 AM MDT 7:49 PM MDT
Nautical Twilight 5:24 AM MDT 8:22 PM MDT
Astronomical Twilight 4:50 AM MDT 8:56 PM MDT
Moon 4:02 PM MDT (9/4) 1:18 AM MDT (9/4)
Length of Visible Light 13h 52m
Length of Day
12h 56m
Waxing Gibbous, 75% of the Moon is Illuminated
Sep 4
Waxing Gibbous
Sep 8
Full
Sep 15
Last Quarter
Sep 24
New
Oct 1
First Quarter

Hourly Weather History & Observations

Time (MDT) Temp. Dew Point Humidity Pressure Visibility Wind Dir Wind Speed Gust Speed Precip Events Conditions
12:15 AM 67.8 °F 40.1 °F 36% 29.77 in 10.0 mi North 9.2 mph - N/A   Clear
12:35 AM 70.0 °F 39.0 °F 32% 29.79 in 10.0 mi NW 11.5 mph - N/A   Clear
12:55 AM 72.7 °F 36.9 °F 27% 29.79 in 10.0 mi NW 3.5 mph - N/A   Clear
1:15 AM 68.9 °F 37.8 °F 32% 29.78 in 10.0 mi NNW 12.7 mph - N/A   Clear
1:55 AM 72.9 °F 34.5 °F 25% 29.78 in 10.0 mi NNW 13.8 mph - N/A   Clear
2:15 AM 74.3 °F 34.7 °F 24% 29.80 in 10.0 mi NNW 15.0 mph - N/A   Clear
2:55 AM 72.9 °F 33.3 °F 23% 29.82 in 10.0 mi NNW 17.3 mph - N/A   Clear
3:15 AM 72.5 °F 34.3 °F 25% 29.82 in 7.0 mi NNW 21.9 mph - N/A   Clear
3:35 AM 70.5 °F 35.8 °F 28% 29.82 in 10.0 mi NNW 18.4 mph 25.3 mph N/A   Clear
3:55 AM 68.7 °F 36.9 °F 31% 29.84 in 10.0 mi NNW 20.7 mph - N/A   Clear
4:15 AM 66.4 °F 38.5 °F 36% 29.85 in 10.0 mi NNW 19.6 mph 23.0 mph N/A   Clear
4:35 AM 64.8 °F 41.2 °F 42% 29.86 in 10.0 mi North 23.0 mph 28.8 mph N/A   Clear
4:55 AM 63.7 °F 43.7 °F 48% 29.87 in 10.0 mi North 24.2 mph 29.9 mph N/A   Clear
5:15 AM 62.1 °F 44.2 °F 52% 29.88 in 10.0 mi North 26.5 mph 33.4 mph N/A   Clear
5:35 AM 60.6 °F 45.5 °F 57% 29.91 in 10.0 mi North 24.2 mph 34.5 mph N/A   Clear
5:55 AM 59.2 °F 45.7 °F 61% 29.92 in 10.0 mi North 23.0 mph 32.2 mph N/A   Clear
6:15 AM 58.1 °F 46.0 °F 64% 29.94 in 10.0 mi North 24.2 mph 29.9 mph N/A   Clear
6:35 AM 57.4 °F 46.0 °F 66% 29.98 in 10.0 mi North 9.2 mph - N/A   Clear
6:55 AM 56.7 °F 45.5 °F 66% 29.99 in 10.0 mi North 5.8 mph - N/A   Clear
7:15 AM 57.7 °F 44.6 °F 62% 30.00 in 10.0 mi North 13.8 mph 17.3 mph N/A   Clear
7:35 AM 59.0 °F 44.4 °F 58% 30.01 in 10.0 mi North 13.8 mph - N/A   Clear
7:55 AM 60.3 °F 42.6 °F 52% 30.03 in 10.0 mi North 11.5 mph - N/A   Clear
8:15 AM 61.2 °F 41.4 °F 48% 30.04 in 10.0 mi North 9.2 mph - N/A   Clear
8:35 AM 63.0 °F 41.7 °F 46% 30.04 in 10.0 mi North 10.4 mph - N/A   Clear
8:55 AM 64.4 °F 41.2 °F 43% 30.04 in 10.0 mi North 15.0 mph 19.6 mph N/A   Clear
9:15 AM 64.9 °F 41.2 °F 42% 30.06 in 10.0 mi North 15.0 mph - N/A   Clear
9:35 AM 66.6 °F 41.7 °F 40% 30.08 in 10.0 mi NNE 9.2 mph - N/A   Clear
9:55 AM 67.1 °F 40.5 °F 38% 30.09 in 10.0 mi NNE 13.8 mph - N/A   Clear
10:15 AM 68.0 °F 40.5 °F 37% 30.09 in 10.0 mi NNE 5.8 mph - N/A   Clear
10:35 AM 68.4 °F 39.7 °F 35% 30.10 in 10.0 mi ENE 6.9 mph - N/A   Clear
10:55 AM 68.9 °F 39.9 °F 35% 30.10 in 10.0 mi NNE 9.2 mph - N/A   Clear
11:15 AM 69.3 °F 39.6 °F 34% 30.09 in 10.0 mi NE 9.2 mph - N/A   Clear
11:35 AM 69.8 °F 39.4 °F 33% 30.09 in 10.0 mi NE 8.1 mph - N/A   Clear
11:55 AM 71.2 °F 38.8 °F 31% 30.09 in 10.0 mi NE 9.2 mph 17.3 mph N/A   Clear
12:15 PM 71.8 °F 39.4 °F 31% 30.08 in 10.0 mi NE 11.5 mph - N/A   Clear
12:35 PM 70.7 °F 39.2 °F 32% 30.08 in 10.0 mi NE 6.9 mph - N/A   Clear
12:55 PM 70.2 °F 39.7 °F 33% 30.07 in 10.0 mi NE 9.2 mph - N/A   Clear
1:15 PM 71.2 °F 39.2 °F 31% 30.07 in 10.0 mi ENE 9.2 mph - N/A   Clear
1:35 PM 73.2 °F 39.9 °F 30% 30.06 in 10.0 mi NNE 10.4 mph 17.3 mph N/A   Clear
1:55 PM 73.0 °F 40.3 °F 31% 30.06 in 10.0 mi NE 8.1 mph - N/A   Clear
2:15 PM 73.6 °F 39.2 °F 29% 30.07 in 10.0 mi ENE 10.4 mph 18.4 mph N/A   Clear
2:35 PM 73.6 °F 38.8 °F 28% 30.07 in 10.0 mi East 12.7 mph 16.1 mph N/A   Clear
2:55 PM 74.5 °F 38.8 °F 28% 30.06 in 10.0 mi East 10.4 mph 19.6 mph N/A   Clear
3:15 PM 74.3 °F 38.8 °F 28% 30.06 in 10.0 mi East 15.0 mph 19.6 mph N/A   Clear
3:35 PM 72.7 °F 38.7 °F 29% 30.07 in 10.0 mi East 15.0 mph - N/A   Clear
3:55 PM 71.8 °F 38.5 °F 30% 30.06 in 10.0 mi East 13.8 mph - N/A   Clear
4:15 PM 73.0 °F 38.5 °F 29% 30.07 in 10.0 mi East 13.8 mph 19.6 mph N/A   Clear
4:35 PM 71.1 °F 38.3 °F 30% 30.09 in 10.0 mi East 8.1 mph - N/A   Clear
4:55 PM 70.2 °F 39.2 °F 32% 30.09 in 10.0 mi ENE 8.1 mph - N/A   Clear
5:15 PM 70.3 °F 39.2 °F 32% 30.10 in 10.0 mi ENE 8.1 mph - N/A   Clear
5:35 PM 69.4 °F 39.7 °F 34% 30.11 in 10.0 mi NE 4.6 mph - N/A   Clear
5:55 PM 68.5 °F 40.1 °F 35% 30.12 in 10.0 mi East 5.8 mph - N/A   Clear
6:15 PM 68.2 °F 40.5 °F 36% 30.12 in 10.0 mi East 5.8 mph - N/A   Clear
6:35 PM 67.3 °F 42.1 °F 40% 30.13 in 10.0 mi ESE 6.9 mph - N/A   Clear
6:55 PM 66.4 °F 41.7 °F 41% 30.13 in 10.0 mi East 6.9 mph - N/A   Scattered Clouds
7:15 PM 64.9 °F 43.7 °F 46% 30.11 in 10.0 mi NE 6.9 mph - N/A   Scattered Clouds
7:35 PM 64.4 °F 43.7 °F 47% 30.13 in 10.0 mi NE 3.5 mph - N/A   Mostly Cloudy
7:55 PM 63.9 °F 43.5 °F 48% 30.13 in 10.0 mi ENE 6.9 mph - N/A   Overcast
8:15 PM 63.1 °F 44.2 °F 50% 30.15 in 10.0 mi Calm Calm - N/A   Overcast
8:35 PM 63.5 °F 43.3 °F 48% 30.15 in 10.0 mi NE 5.8 mph - N/A   Scattered Clouds
9:15 PM 63.0 °F 44.1 °F 50% 30.18 in 10.0 mi Calm Calm - N/A   Mostly Cloudy
9:35 PM 63.1 °F 43.3 °F 48% 30.20 in 10.0 mi Calm Calm - N/A   Overcast
9:55 PM 62.6 °F 44.1 °F 51% 30.22 in 10.0 mi North 5.8 mph - N/A   Overcast
10:15 PM 63.0 °F 43.7 °F 49% 30.23 in 10.0 mi North 4.6 mph - N/A   Overcast
10:35 PM 62.6 °F 43.7 °F 50% 30.23 in 10.0 mi North 8.1 mph - N/A   Overcast
10:55 PM 60.8 °F 47.3 °F 61% 30.23 in 10.0 mi North 8.1 mph - N/A   Overcast
11:15 PM 58.3 °F 48.7 °F 71% 30.24 in 10.0 mi North 9.2 mph - N/A   Overcast
11:35 PM 56.1 °F 48.7 °F 76% 30.23 in 10.0 mi North 10.4 mph - N/A   Overcast
11:55 PM 55.4 °F 48.4 °F 77% 30.24 in 10.0 mi North 8.1 mph - N/A   Overcast